Sparta, WI

5:28 AM CST on December 10, 2016 (GMT -0600)
Sparta-Fort McCoy

Weather History for KCMY - July, 2013

Change the Weather History Date:

Friday, July 12, 2013

  Actual Average Record
Temperature  
Mean Temperature 68 °F -  
Max Temperature 85 °F 85 °F 96 °F (1973)
Min Temperature 51 °F 59 °F 45 °F (1959)
Cooling Degree Days 3    
Growing Degree Days 18 (Base 50)    
Moisture  
Dew Point 54 °F    
Average Humidity 63    
Maximum Humidity 97    
Minimum Humidity 34    
Precipitation  
Precipitation 0.00 in - - ()
Sea Level Pressure  
Sea Level Pressure 30.10 in    
Wind  
Wind Speed 3 mph (SSE)    
Max Wind Speed 14 mph    
Max Gust Speed 20 mph    
Visibility 10 miles    
Events      
Averages and records for this station are not official NWS values.
T = Trace of Precipitation, MM = Missing Value Source: NWS Daily Summary

Daily Weather History Graph

Daily Weather History Graph

Search for Another Location

Airport or City:

Trip Planner

Search our weather history database for the weather conditions in past years. The results will help you decide how hot, cold, wet, or windy it might be!

Date:

Astronomy

Jul. 12, 2013 Rise Set
Actual Time 5:31 AM CDT 8:44 PM CDT
Civil Twilight 4:56 AM CDT 9:20 PM CDT
Nautical Twilight 4:11 AM CDT 10:05 PM CDT
Astronomical Twilight 3:15 AM CDT 11:00 PM CDT
Moon 9:59 AM CDT (7/12) 10:43 PM CDT (7/12)
Length of Visible Light 16h 23m
Length of Day
15h 13m
Waxing Crescent, 17% of the Moon is Illuminated
Jul 12
Waxing Crescent
Jul 15
First Quarter
Jul 22
Full
Jul 29
Last Quarter
Aug 6
New

Hourly Weather History & Observations

Time (CDT) Temp. Heat Index Dew Point Humidity Pressure Visibility Wind Dir Wind Speed Gust Speed Precip Events Conditions
12:15 AM 59.2 °F - 57.0 °F 93% 30.09 in 10.0 mi Calm Calm - N/A   Unknown
12:35 AM 59.2 °F - 56.7 °F 91% 30.10 in 10.0 mi Calm Calm - N/A   Unknown
12:55 AM 57.7 °F - 56.3 °F 95% 30.10 in 7.0 mi Calm Calm - N/A   Unknown
1:15 AM 56.8 °F - 55.6 °F 96% 30.10 in 10.0 mi Calm Calm - N/A   Unknown
1:35 AM 57.6 °F - 55.9 °F 94% 30.10 in 10.0 mi Calm Calm - N/A   Unknown
1:55 AM 56.7 °F - 55.4 °F 96% 30.10 in 10.0 mi Calm Calm - N/A   Unknown
2:15 AM 55.6 °F - 54.0 °F 94% 30.10 in 10.0 mi Calm Calm - N/A   Unknown
2:35 AM 54.7 °F - 53.6 °F 96% 30.09 in 10.0 mi Calm Calm - N/A   Unknown
2:55 AM 54.5 °F - 53.1 °F 95% 30.09 in 10.0 mi Calm Calm - N/A   Unknown
3:15 AM 54.5 °F - 53.1 °F 95% 30.09 in 10.0 mi Calm Calm - N/A   Unknown
3:35 AM 54.7 °F - 53.4 °F 96% 30.09 in 10.0 mi Calm Calm - N/A   Unknown
3:55 AM 54.0 °F - 52.2 °F 94% 30.10 in 10.0 mi Calm Calm - N/A   Unknown
4:15 AM 53.4 °F - 52.2 °F 95% 30.11 in 10.0 mi Calm Calm - N/A   Unknown
4:35 AM 52.0 °F - 51.1 °F 97% 30.12 in 5.0 mi Calm Calm - N/A   Mist
4:55 AM 52.2 °F - 51.1 °F 96% 30.12 in 10.0 mi Calm Calm - N/A   Unknown
5:15 AM 51.3 °F - 50.2 °F 96% 30.12 in 7.0 mi Calm Calm - N/A   Unknown
5:35 AM 51.4 °F - 50.2 °F 95% 30.12 in 10.0 mi Calm Calm - N/A   Unknown
5:55 AM 51.8 °F - 50.4 °F 95% 30.12 in 10.0 mi Calm Calm - N/A   Unknown
6:15 AM 52.7 °F - 50.5 °F 92% 30.12 in 10.0 mi Calm Calm - N/A   Unknown
6:35 AM 54.5 °F - 51.8 °F 91% 30.13 in 10.0 mi Calm Calm - N/A   Unknown
6:55 AM 55.6 °F - 53.8 °F 94% 30.13 in 10.0 mi Calm Calm - N/A   Unknown
7:15 AM 58.1 °F - 55.8 °F 92% 30.14 in 10.0 mi Calm Calm - N/A   Unknown
7:35 AM 59.0 °F - 56.3 °F 91% 30.14 in 10.0 mi Calm Calm - N/A   Unknown
7:55 AM 64.0 °F - 58.3 °F 82% 30.14 in 10.0 mi Calm Calm - N/A   Unknown
8:15 AM 68.5 °F - 58.3 °F 70% 30.14 in 10.0 mi Calm Calm - N/A   Unknown
8:35 AM 71.6 °F - 56.8 °F 60% 30.15 in 10.0 mi South 3.5 mph - N/A   Unknown
8:55 AM 73.0 °F - 56.3 °F 56% 30.15 in 10.0 mi SSW 4.6 mph - N/A   Unknown
9:15 AM 74.1 °F - 55.4 °F 52% 30.14 in 10.0 mi South 6.9 mph - N/A   Unknown
9:35 AM 75.7 °F - 54.5 °F 48% 30.14 in 10.0 mi South 11.5 mph - N/A   Unknown
9:55 AM 76.5 °F - 53.4 °F 45% 30.13 in 10.0 mi South 8.1 mph - N/A   Unknown
10:15 AM 77.2 °F - 53.6 °F 44% 30.13 in 10.0 mi SSW 11.5 mph - N/A   Unknown
10:35 AM 78.1 °F - 52.7 °F 41% 30.13 in 10.0 mi SSW 10.4 mph 17.3 mph N/A   Unknown
10:55 AM 78.3 °F - 52.7 °F 41% 30.13 in 10.0 mi South 8.1 mph - N/A   Unknown
11:15 AM 78.4 °F - 53.2 °F 42% 30.14 in 10.0 mi South 10.4 mph - N/A   Unknown
11:35 AM 79.5 °F - 53.1 °F 40% 30.13 in 10.0 mi SW 9.2 mph - N/A   Unknown
11:55 AM 80.2 °F 80.0 °F 53.2 °F 39% 30.12 in 10.0 mi SSW 10.4 mph - N/A   Unknown
12:15 PM 81.3 °F - 52.7 °F 37% 30.12 in 10.0 mi SSE 10.4 mph 16.1 mph N/A   Unknown
12:35 PM 81.7 °F 81.0 °F 53.4 °F 38% 30.12 in 10.0 mi South 9.2 mph 16.1 mph N/A   Unknown
12:55 PM 81.9 °F - 52.7 °F 36% 30.12 in 10.0 mi South 11.5 mph 17.3 mph N/A   Unknown
1:15 PM 82.4 °F - 52.9 °F 36% 30.11 in 10.0 mi South 11.5 mph - N/A   Unknown
1:35 PM 82.2 °F 81.3 °F 53.4 °F 37% 30.11 in 10.0 mi SSW 8.1 mph - N/A   Unknown
1:55 PM 82.4 °F - 52.2 °F 35% 30.11 in 10.0 mi SSW 8.1 mph 16.1 mph N/A   Unknown
2:15 PM 82.9 °F - 52.9 °F 35% 30.10 in 10.0 mi South 13.8 mph 17.3 mph N/A   Unknown
2:35 PM 83.1 °F - 52.9 °F 35% 30.10 in 10.0 mi South 12.7 mph 18.4 mph N/A   Unknown
2:55 PM 83.7 °F - 52.5 °F 34% 30.10 in 10.0 mi South 9.2 mph 19.6 mph N/A   Unknown
3:15 PM 83.7 °F 82.3 °F 53.1 °F 35% 30.09 in 10.0 mi South 8.1 mph - N/A   Unknown
3:35 PM 85.1 °F 83.5 °F 53.6 °F 34% 30.09 in 10.0 mi SSE 8.1 mph - N/A   Unknown
4:15 PM 83.7 °F 82.4 °F 53.8 °F 36% 30.09 in 10.0 mi South 9.2 mph 17.3 mph N/A   Unknown
4:35 PM 83.8 °F 82.4 °F 53.2 °F 35% 30.08 in 10.0 mi SSE 12.7 mph - N/A   Unknown
4:55 PM 83.3 °F 82.2 °F 54.1 °F 37% 30.07 in 10.0 mi South 9.2 mph - N/A   Unknown
5:15 PM 83.3 °F 82.2 °F 54.1 °F 37% 30.07 in 10.0 mi SSE 11.5 mph - N/A   Unknown
5:35 PM 83.1 °F 82.1 °F 54.7 °F 37% 30.07 in 10.0 mi South 11.5 mph - N/A   Unknown
5:55 PM 82.8 °F 81.9 °F 54.9 °F 38% 30.06 in 10.0 mi SSE 9.2 mph - N/A   Unknown
6:15 PM 82.4 °F 81.7 °F 54.9 °F 39% 30.07 in 10.0 mi SSE 10.4 mph - N/A   Unknown
6:35 PM 81.5 °F 81.1 °F 55.4 °F 41% 30.07 in 10.0 mi SSE 9.2 mph - N/A   Unknown
6:55 PM 80.8 °F 80.7 °F 55.6 °F 42% 30.06 in 10.0 mi SSE 11.5 mph - N/A   Unknown
7:15 PM 80.1 °F 80.1 °F 55.2 °F 42% 30.06 in 10.0 mi SSE 11.5 mph 16.1 mph N/A   Unknown
7:35 PM 79.3 °F - 55.8 °F 44% 30.06 in 10.0 mi SSE 9.2 mph - N/A   Unknown
7:55 PM 78.3 °F - 56.3 °F 47% 30.07 in 10.0 mi SSE 6.9 mph - N/A   Unknown
8:15 PM 77.0 °F - 56.8 °F 50% 30.07 in 10.0 mi SSE 4.6 mph - N/A   Unknown
8:35 PM 75.2 °F - 57.2 °F 53% 30.06 in 10.0 mi SSE 4.6 mph - N/A   Unknown
8:55 PM 73.4 °F - 57.6 °F 58% 30.06 in 10.0 mi SE 5.8 mph - N/A   Unknown
9:15 PM 71.1 °F - 57.9 °F 63% 30.06 in 10.0 mi SSE 3.5 mph - N/A   Unknown
9:35 PM 69.3 °F - 57.6 °F 66% 30.06 in 10.0 mi SE 6.9 mph - N/A   Unknown
9:55 PM 70.2 °F - 57.2 °F 63% 30.05 in 10.0 mi SE 4.6 mph - N/A   Unknown
10:15 PM 67.6 °F - 57.4 °F 70% 30.06 in 10.0 mi SE 4.6 mph - N/A   Unknown
10:35 PM 66.2 °F - 57.2 °F 73% 30.06 in 10.0 mi Calm Calm - N/A   Unknown
10:55 PM 65.5 °F - 57.2 °F 75% 30.05 in 10.0 mi ESE 3.5 mph - N/A   Unknown
11:15 PM 65.3 °F - 57.2 °F 75% 30.05 in 10.0 mi Calm Calm - N/A   Unknown
11:35 PM 63.7 °F - 56.7 °F 78% 30.06 in 10.0 mi ESE 3.5 mph - N/A   Unknown
11:55 PM 63.9 °F - 56.5 °F 77% 30.07 in 10.0 mi Calm Calm - N/A   Unknown